EW9479 Weather Reports


Display with metric or nautical units.
time (UTC)temp
F
wind
direction
speed
MPH
gust
MPH
rain 1hr
in
rain 24hr
in
rain mn
in
humidity
%
barometer
mb
20260903100045 73 0 0.0 0.0 0.00 0.00 0.00 90 1017.4
20260903094547 73 0 0.0 0.0 0.00 0.00 0.00 90 1017.3
20260903093051 73 0 0.0 0.0 0.00 0.00 0.00 89 1017.4
20260903091552 73 0 0.0 0.0 0.00 0.00 0.00 89 1017.4
20260903090046 73 0 0.0 0.0 0.00 0.00 0.00 89 1017.6
20260903084547 73 0 0.0 0.0 0.00 0.00 0.00 88 1017.5
20260903083047 74 0 0.0 0.0 0.00 0.00 0.00 88 1017.4
20260903081603 74 0 0.0 0.0 0.00 0.00 0.00 88 1017.2
20260903080044 74 0 0.0 0.0 0.00 0.00 0.00 87 1017.3
20260903074554 75 0 0.0 0.0 0.00 0.00 0.00 86 1017.3
20260903073047 75 0 0.0 0.0 0.00 0.00 0.00 86 1017.3
20260903071551 75 0 0.0 0.0 0.00 0.00 0.00 86 1017.3
20260903070045 75 0 0.0 0.0 0.00 0.00 0.00 85 1017.4
20260903064551 75 0 0.0 0.0 0.00 0.00 0.00 85 1017.4
20260903063049 76 0 0.0 0.0 0.00 0.00 0.00 85 1017.5
20260903061544 75 0 0.0 0.0 0.00 0.00 0.00 85 1017.5
20260903060049 76 0 0.0 0.0 0.00 0.00 0.00 85 1017.7
20260903054548 76 0 0.0 0.0 0.00 0.00 0.00 85 1017.5
20260903053045 76 0 0.0 0.0 0.00 0.00 0.00 84 1017.5
20260903051548 76 0 0.0 0.0 0.00 0.00 0.00 84 1017.6
20260903050048 76 0 0.0 0.0 0.00 0.00 0.00 84 1017.4
20260903044547 76 0 0.0 0.0 0.00 0.00 0.00 84 1017.4
20260903043043 76 0 0.0 0.0 0.00 0.00 0.00 83 1017.5
20260903041549 76 0 0.0 0.0 0.00 0.00 0.00 82 1017.5
20260903040046 77 0 0.0 0.0 0.00 0.00 0.00 81 1017.3
20260903034552 78 0 0.0 0.0 0.00 0.00 0.00 79 1017.4
20260903033105 79 0 0.0 0.0 0.00 0.00 0.00 79 1017.6
20260903031549 79 0 0.0 0.0 0.00 0.00 0.00 78 1017.5
20260903030049 80 0 0.0 0.0 0.00 0.00 0.00 76 1017.4
20260903024603 81 0 0.0 0.0 0.00 0.00 0.00 76 1017.4
20260903023051 81 0 0.0 0.0 0.00 0.00 0.00 74 1017.4
20260903021548 82 0 0.0 0.0 0.00 0.00 0.00 74 1017.3
20260903020103 83 0 0.0 0.0 0.00 0.00 0.00 73 1017.2
20260903014544 83 0 0.0 0.0 0.00 0.00 0.00 71 1017.0
20260903013050 84 0 0.0 1.0 0.00 0.00 0.00 70 1016.8
20260903011546 85 117 0.0 1.0 0.00 0.00 0.00 68 1016.6
20260903010044 86 0 0.0 1.0 0.00 0.00 0.00 67 1016.5
20260903004551 87 0 0.0 0.0 0.00 0.00 0.00 65 1016.4
20260903003046 88 0 0.0 0.0 0.00 0.00 0.00 63 1016.5
20260903001602 90 0 0.0 0.0 0.00 0.00 0.00 59 1016.3
20260903000059 93 0 0.0 1.0 0.00 0.00 0.00 56 1016.4
20260902234550 95 0 0.0 1.0 0.00 0.00 0.00 52 1016.4
20260902233049 95 91 0.0 2.0 0.00 0.00 0.00 51 1016.5
20260902231552 96 101 0.0 4.0 0.00 0.00 0.00 48 1016.4
20260902230043 96 101 0.0 3.0 0.00 0.00 0.00 48 1016.6
20260902224544 97 77 0.0 2.0 0.00 0.00 0.00 46 1016.5
20260902223048 98 127 0.0 3.0 0.00 0.00 0.00 46 1016.6
20260902221607 99 93 0.0 5.0 0.00 0.00 0.00 44 1016.8
20260902220046 100 112 1.0 5.0 0.00 0.00 0.00 45 1016.8
20260902214550 99 267 2.0 6.0 0.00 0.00 0.00 46 1016.8
20260902213053 99 130 1.0 7.0 0.00 0.00 0.00 45 1016.8
20260902211553 99 53 0.0 6.0 0.00 0.00 0.00 46 1016.9
20260902210044 99 315 2.0 6.0 0.00 0.00 0.00 45 1016.9
20260902204605 99 240 4.0 7.0 0.00 0.00 0.00 43 1017.0
20260902203049 99 47 1.0 5.0 0.00 0.00 0.00 45 1017.3
20260902201546 99 203 1.0 7.0 0.00 0.00 0.00 44 1017.4
20260902200051 98 185 3.0 7.0 0.00 0.00 0.00 44 1017.6
20260902194556 98 120 2.0 6.0 0.00 0.00 0.00 47 1017.9
20260902193059 98 219 1.0 8.0 0.00 0.00 0.00 46 1018.1
20260902191553 98 139 2.0 6.0 0.00 0.00 0.00 47 1018.2
20260902190046 96 293 1.0 7.0 0.00 0.00 0.00 47 1018.3
20260902184550 97 124 1.0 7.0 0.00 0.00 0.00 51 1018.5
20260902183112 96 204 2.0 7.0 0.00 0.00 0.00 50 1018.6
20260902181547 96 107 0.0 4.0 0.00 0.00 0.00 52 1018.8
20260902180047 94 224 0.0 2.0 0.00 0.00 0.00 53 1019.0
20260902174551 94 0 0.0 3.0 0.00 0.00 0.00 57 1019.3
20260902173056 95 13 1.0 3.0 0.00 0.00 0.00 57 1019.5
20260902171556 93 0 0.0 1.0 0.00 0.00 0.00 58 1019.6
20260902170046 94 97 0.0 1.0 0.00 0.00 0.00 57 1019.9
20260902164559 95 105 0.0 4.0 0.00 0.00 0.00 57 1020.1
20260902163046 94 210 3.0 7.0 0.00 0.00 0.00 58 1020.0
20260902161547 94 41 3.0 5.0 0.00 0.00 0.00 60 1020.1
20260902160047 94 65 2.0 6.0 0.00 0.00 0.00 59 1020.1
20260902154552 93 55 1.0 3.0 0.00 0.00 0.00 60 1020.1
20260902153045 93 106 1.0 4.0 0.00 0.00 0.00 61 1020.3
20260902151544 92 292 0.0 4.0 0.00 0.00 0.00 61 1020.4
20260902150044 92 194 1.0 3.0 0.00 0.00 0.00 62 1020.4
20260902144544 90 188 0.0 2.0 0.00 0.00 0.00 64 1020.5
20260902143046 88 198 1.0 4.0 0.00 0.00 0.00 68 1020.5
20260902141554 87 111 0.0 4.0 0.00 0.00 0.00 69 1020.4
20260902140043 85 148 2.0 4.0 0.00 0.00 0.00 70 1020.5
20260902134550 84 186 0.0 2.0 0.00 0.00 0.00 73 1020.6
20260902133045 82 221 0.0 2.0 0.00 0.00 0.00 74 1020.6
20260902131604 79 0 0.0 1.0 0.00 0.00 0.00 80 1020.6
20260902130054 75 0 0.0 1.0 0.00 0.00 0.00 87 1020.4
20260902124549 73 0 0.0 0.0 0.00 0.00 0.00 92 1020.4
20260902123045 72 0 0.0 0.0 0.00 0.00 0.00 93 1020.2
20260902121547 71 0 0.0 0.0 0.00 0.00 0.00 93 1020.1
20260902120051 71 0 0.0 0.0 0.00 0.00 0.00 93 1020.0
20260902114607 71 0 0.0 0.0 0.00 0.00 0.00 92 1019.9
20260902113044 70 0 0.0 0.0 0.00 0.00 0.00 92 1019.7
20260902111545 70 0 0.0 0.0 0.00 0.00 0.00 92 1019.6
20260902110053 71 0 0.0 0.0 0.00 0.00 0.00 92 1019.4
20260902104547 71 0 0.0 0.0 0.00 0.00 0.00 92 1019.2
20260902103055 70 0 0.0 0.0 0.00 0.00 0.00 92 1019.1
20260902101551 71 0 0.0 0.0 0.00 0.00 0.00 91 1018.8